Weather

Ora Tempo Temperatura Umidità Vento Precipitazioni
03:00 overcast clouds 15.1° 62% 2.67 km/h 0 mm
06:00 overcast clouds 15.9° 60% 1.81 km/h 0 mm
09:00 overcast clouds 18.1° 58% 2.3 km/h 0 mm
12:00 overcast clouds 20.3° 61% 3.5 km/h 0 mm
15:00 overcast clouds 19.6° 67% 2.46 km/h 0 mm
18:00 overcast clouds 19.3° 66% 1.02 km/h 0 mm
21:00 broken clouds 18.0° 65% 1.67 km/h 0 mm
Ora Tempo Temperatura Umidità Vento Precipitazioni
00:00 scattered clouds 17.0° 63% 1.91 km/h 0 mm
03:00 broken clouds 16.1° 63% 2.23 km/h 0 mm
06:00 broken clouds 18.1° 54% 1.96 km/h 0 mm
09:00 broken clouds 21.4° 45% 1.48 km/h 0 mm
12:00 scattered clouds 21.8° 50% 4.06 km/h 0 mm
15:00 clear sky 21.6° 59% 3.4 km/h 0 mm
18:00 clear sky 20.4° 68% 1.34 km/h 0 mm
21:00 clear sky 18.7° 71% 0.76 km/h 0 mm
Ora Tempo Temperatura Umidità Vento Precipitazioni
00:00 clear sky 17.8° 67% 2.08 km/h 0 mm
03:00 clear sky 16.8° 65% 2 km/h 0 mm
06:00 clear sky 18.8° 55% 1.49 km/h 0 mm
09:00 clear sky 21.4° 50% 2.55 km/h 0 mm
12:00 clear sky 22.2° 55% 3.81 km/h 0 mm
15:00 clear sky 22.4° 59% 4.15 km/h 0 mm
18:00 clear sky 21.1° 72% 2.19 km/h 0 mm
21:00 scattered clouds 19.2° 78% 1.73 km/h 0 mm
Ora Tempo Temperatura Umidità Vento Precipitazioni
00:00 scattered clouds 18.1° 78% 2.28 km/h 0 mm
03:00 overcast clouds 17.7° 76% 2.22 km/h 0 mm
06:00 overcast clouds 19.6° 68% 1.29 km/h 0 mm
09:00 scattered clouds 21.4° 68% 3.25 km/h 0 mm
12:00 scattered clouds 22.3° 71% 4.58 km/h 0 mm
15:00 broken clouds 22.2° 72% 4.1 km/h 0 mm
18:00 broken clouds 21.0° 82% 2.71 km/h 0 mm
21:00 light rain 19.3° 91% 2.42 km/h 0.82 mm
Ora Tempo Temperatura Umidità Vento Precipitazioni
00:00 light rain 19.0° 91% 1.54 km/h 1.32 mm
03:00 light rain 18.4° 93% 1.56 km/h 1.50 mm
06:00 light rain 19.6° 84% 2.11 km/h 1.21 mm
09:00 scattered clouds 21.8° 73% 2.84 km/h 0 mm
12:00 scattered clouds 22.0° 75% 4.62 km/h 0 mm
15:00 light rain 21.3° 79% 4.06 km/h 0.15 mm
18:00 light rain 19.8° 88% 0.98 km/h 1.95 mm
21:00 light rain 18.9° 91% 1.76 km/h 2.81 mm
Ora Tempo Temperatura Umidità Vento Precipitazioni
00:00 light rain 18.3° 91% 2.4 km/h 1.16 mm
Wednesday 02 June
Temp. max: 20.3°
Temp. min: 15.1°
Ora Tempo Temperatura Umidità Vento Precipitazioni
03:00 overcast clouds 15.1° 62% 2.67 km/h 0 mm
06:00 overcast clouds 15.9° 60% 1.81 km/h 0 mm
09:00 overcast clouds 18.1° 58% 2.3 km/h 0 mm
12:00 overcast clouds 20.3° 61% 3.5 km/h 0 mm
15:00 overcast clouds 19.6° 67% 2.46 km/h 0 mm
18:00 overcast clouds 19.3° 66% 1.02 km/h 0 mm
21:00 broken clouds 18.0° 65% 1.67 km/h 0 mm
Thursday 03 June
Temp. max: 21.8°
Temp. min: 16.1°
Ora Tempo Temperatura Umidità Vento Precipitazioni
00:00 scattered clouds 17.0° 63% 1.91 km/h 0 mm
03:00 broken clouds 16.1° 63% 2.23 km/h 0 mm
06:00 broken clouds 18.1° 54% 1.96 km/h 0 mm
09:00 broken clouds 21.4° 45% 1.48 km/h 0 mm
12:00 scattered clouds 21.8° 50% 4.06 km/h 0 mm
15:00 clear sky 21.6° 59% 3.4 km/h 0 mm
18:00 clear sky 20.4° 68% 1.34 km/h 0 mm
21:00 clear sky 18.7° 71% 0.76 km/h 0 mm
Friday 04 June
Temp. max: 22.4°
Temp. min: 16.8°
Ora Tempo Temperatura Umidità Vento Precipitazioni
00:00 clear sky 17.8° 67% 2.08 km/h 0 mm
03:00 clear sky 16.8° 65% 2 km/h 0 mm
06:00 clear sky 18.8° 55% 1.49 km/h 0 mm
09:00 clear sky 21.4° 50% 2.55 km/h 0 mm
12:00 clear sky 22.2° 55% 3.81 km/h 0 mm
15:00 clear sky 22.4° 59% 4.15 km/h 0 mm
18:00 clear sky 21.1° 72% 2.19 km/h 0 mm
21:00 scattered clouds 19.2° 78% 1.73 km/h 0 mm
Saturday 05 June
Temp. max: 22.3°
Temp. min: 17.7°
Ora Tempo Temperatura Umidità Vento Precipitazioni
00:00 scattered clouds 18.1° 78% 2.28 km/h 0 mm
03:00 overcast clouds 17.7° 76% 2.22 km/h 0 mm
06:00 overcast clouds 19.6° 68% 1.29 km/h 0 mm
09:00 scattered clouds 21.4° 68% 3.25 km/h 0 mm
12:00 scattered clouds 22.3° 71% 4.58 km/h 0 mm
15:00 broken clouds 22.2° 72% 4.1 km/h 0 mm
18:00 broken clouds 21.0° 82% 2.71 km/h 0 mm
21:00 light rain 19.3° 91% 2.42 km/h 0.82 mm
Sunday 06 June
Temp. max: 22.0°
Temp. min: 18.4°
Ora Tempo Temperatura Umidità Vento Precipitazioni
00:00 light rain 19.0° 91% 1.54 km/h 1.32 mm
03:00 light rain 18.4° 93% 1.56 km/h 1.50 mm
06:00 light rain 19.6° 84% 2.11 km/h 1.21 mm
09:00 scattered clouds 21.8° 73% 2.84 km/h 0 mm
12:00 scattered clouds 22.0° 75% 4.62 km/h 0 mm
15:00 light rain 21.3° 79% 4.06 km/h 0.15 mm
18:00 light rain 19.8° 88% 0.98 km/h 1.95 mm
21:00 light rain 18.9° 91% 1.76 km/h 2.81 mm
Monday 07 June
Temp. max: 18.3°
Temp. min: 18.3°
Ora Tempo Temperatura Umidità Vento Precipitazioni
00:00 light rain 18.3° 91% 2.4 km/h 1.16 mm

Live Cam

VUOI RICEVERE PIÚ INFORMAZIONI SUI NOSTRI SERVIZI?

Usa la form di contatti sul sito o contattaci telefonicamente